Weather Roundup
Issued by NWS Chicago, IL

Home | Current Version | Previous Version | Graphics & Text | Print | Product List | Glossary On
Versions: 1 2 3 4 5 6 7 8 9 10 11 12 13 14 15 16 17 18 19 20 21 22 23 24 25 26 27 28 29 30 31 32 33 34 35 36 37 38 39 40 41 42 43 44 45 46 47 48 49 50
000
NZUS59 KLOT 250303
HRRLOT

CHICAGO AREA WEATHER ROUNDUP
NATIONAL WEATHER SERVICE CHICAGO/ROMEOVILLE IL
1000 PM CDT TUE APR 24 2018

NOTE: "FAIR" INDICATES FEW OR NO CLOUDS BELOW 12,000 FEET WITH NO
SIGNIFICANT WEATHER AND/OR OBSTRUCTIONS TO VISIBILITY.

* THESE STATIONS ARE NOT UNDER NWS QUALITY CONTROL. THEY ALSO MAY NOT
  REPORT WEATHER SUCH AS PRECIPITATION OR FOG.

ILZ005-006-012>014-019>023-250400-
NORTHEAST ILLINOIS

CITY           SKY/WX    TMP DP  RH WIND       PRES   REMARKS
OHARE            N/A     51  45  79 NE13      30.02R
MIDWAY           N/A     52  47  83 N8        30.01R
AURORA           N/A     53  45  74 NE5       30.00S
LANSING*         N/A     47  46  97 CALM      30.01S
JOLIET*          N/A     53  48  82 CALM      30.01S
WAUKEGAN         N/A     47  45  93 NE9       30.02S
DUPAGE AIRPORT   N/A     52  48  86 NE8       30.01R
WHEELING         N/A     49  45  86 N7        30.05R
KANKAKEE*        N/A     49  46  88 NE3       30.01S
MORRIS*          N/A     53  46  78 E3        30.00S
LEWIS AIRPORT*   N/A     50  46  85 E6        30.01S
NORTHERLY ISL    N/A     45  42  89 MISG        N/A
$$

WIZ051-052-058>065-066-070>072-250400-
SOUTHEAST WISCONSIN

CITY           SKY/WX    TMP DP  RH WIND       PRES   REMARKS
MILWAUKEE        N/A     45  41  86 N12       30.05R
KENOSHA*         N/A     48  44  86 NE8       30.03S
RACINE*          N/A     43  42  97 N12       30.05F
BURLINGTON       N/A     49  46  87 E6        30.03S
WAUKESHA         N/A     45  41  87 NE12      30.06R
WEST BEND        N/A     46  30  53 NE16G22   30.07S
$$

INZ001>003-010>013-019-020-250400-
NORTHWEST INDIANA

CITY           SKY/WX    TMP DP  RH WIND       PRES   REMARKS
GARY*          PTCLDY    45  43  93 CALM      30.02R
MICHIGAN CITY* NOT AVBL
RENSSELAER*    NOT AVBL
VALPARAISO     MOCLDY    52  47  83 N7        29.99F
$$

LMZ740>746-250400-
SOUTHERN LAKE MICHIGAN

STATION/POSITION TIME  SKY/WX   TEMP WIND        PRES    VSBY
                                AIR  DIR/SP/G
                 (UTC)          (F)  (DEG/KT/KT) (MB)    (MI)
HARRISON CRIB    0240            43  340/ 10/ 11   N/A
BURNHAM HARBOR   0300            45  330/  9       N/A
CALUMET HARBOR   0230            43  320/  5/  8 1016.0R
BURNS HARBOR     0240            43     CALM     1016.6F
MICHIGAN CITY    0240            44  290/  4/  5   N/A
$$

ABBREVIATIONS USED IN REMARKS
   TC - TEMPERATURE IN CELSIUS
  WCI - WIND CHILL INDEX
   HX - HEAT INDEX
  VSB - VISIBILITY
$$



USA.gov is the U.S. government's official web portal to all federal, state and local government web resources and services.